Flag for Brazil Weather past 2 weeks in São Luis, Maranhão, Brazil

Now
84 °F

Passing clouds.


Feels Like: 87 °F
Forecast: N/A
Wind: 17 mph from Northeast

Location: Sao Luiz Aeroporto

Current Time: Sep 19, 2014 at 5:46:23 PM

Latest Report: Sep 19, 2014 at 5:00 PM


Visibility: N/A

Pressure: 29.86 "Hg

Humidity: 58%

Dew point: 68 °F

Location of São LuisLocation

Historic Weather in São Luis — Graph

°F

São Luis temperature yesterday

Maximum temperature yesterday: 88 °F (at 11:00 AM)
Minimum temperature yesterday: 81 °F (at 12:00 AM)
Average temperature yesterday: 83 °F

Past Weeks' High & Low Weather Summary

 TemperatureHumidityPressure
High91 °F (Sep 9, 1:00 PM)79% (Sep 5, 8:00 AM)29.98 "Hg (Sep 5, 8:00 AM)
Low79 °F (Sep 4, 10:00 PM)38% (Sep 9, 1:00 PM)29.77 "Hg (Sep 11, 3:00 PM)
Average83 °F66%29.89 "Hg
* Reported Sep 4 5:00 PM — Sep 19 5:00 PM, São Luis, Weather by CustomWeather, © 2014

Note: Actual official high and low records may vary slightly from our data, if they occured in-between our weather recording intervals... More about our weather records

Advertising

São Luis weather history for previous 24 hours

 ConditionsComfort  
Time TempWeatherWind HumidityBarometerVisibility
5:00 PM
Sep 19
84 °FPassing clouds.17 mph58%29.86 "HgN/A
4:00 PM86 °FPassing clouds.15 mph55%29.83 "HgN/A
3:00 PM88 °FPassing clouds.14 mph52%29.83 "HgN/A
2:00 PM88 °FScattered clouds.14 mph52%29.86 "HgN/A
1:00 PM88 °FPartly sunny.16 mph52%29.89 "HgN/A
12:00 PM88 °FScattered clouds.15 mph52%29.92 "HgN/A
11:00 AM84 °FPartly sunny.18 mph58%29.95 "HgN/A
10:00 AM82 °FPartly sunny.15 mph66%29.95 "HgN/A
9:00 AM84 °FScattered clouds.15 mph62%29.95 "HgN/A
8:00 AM82 °FScattered clouds.20 mph66%29.95 "HgN/A
7:00 AM81 °FScattered clouds.9 mph70%29.92 "HgN/A
6:00 AM81 °FScattered clouds.8 mph70%29.89 "HgN/A
5:00 AM81 °FPassing clouds.9 mph70%29.86 "HgN/A
4:00 AM81 °FPassing clouds.14 mph70%29.86 "HgN/A
3:00 AM81 °FPassing clouds.10 mph70%29.86 "HgN/A
2:00 AM81 °FPassing clouds.15 mph70%29.86 "HgN/A
1:00 AM81 °FPassing clouds.14 mph70%29.86 "HgN/A
12:00 AM81 °FPassing clouds.15 mph70%29.89 "HgN/A
11:00 PM
Sep 18
81 °FPassing clouds.12 mph70%29.89 "HgN/A
10:00 PM81 °FPassing clouds.16 mph70%29.89 "HgN/A
9:00 PM81 °FPassing clouds.14 mph70%29.86 "HgN/A
8:00 PM81 °FPassing clouds.13 mph70%29.86 "HgN/A
7:00 PM81 °FPassing clouds.20 mph70%29.83 "HgN/A
6:00 PM82 °FPassing clouds.17 mph66%29.83 "HgN/A
5:00 PM84 °FScattered clouds.21 mph62%29.83 "HgN/A
Weather by CustomWeather, © 2014

See weather overviewHow to use our weather pages